KIRKWALL_AIRPORT current weather conditions

sailwx.info

Wind from 170 at 15 knots

Air temperature 8.0° C
Visibility: greater than 5.4 NM
Dewpoint 7.0° C

Last reported at 2017-Jan-24 15:20 UTC.
Time now 2017-Jan-24 17:16 UTC

Location: N 58°57' W 002°54'.
View on Google Maps.

See reports from other nearby stations

  
Tides and Currents Weather Stations Pressure Air Temp Water Temp Dewpoint Dewpoint Depression Visibility Wind Speed Wind Dir Waves Ship Positions
date/time (UTC)wind fromknots sea level pressurealtimeterstation pressurevisibilityair tempwater tempwave heightnotes
2017-Jan-24 16:20 180 14 5.4 9.0
2017-Jan-24 15:50 180 15 5.4 8.0
2017-Jan-24 15:20 170 15 5.4 8.0
2017-Jan-24 14:50 170 15 5.4 9.0
2017-Jan-24 14:20 180 14 5.4 9.0
2017-Jan-24 13:50 180 13 5.4 9.0
2017-Jan-24 13:20 190 15 5.4 9.0
2017-Jan-24 12:50 200 20 5.410.0
2017-Jan-24 12:20 200 20 5.4 9.0
2017-Jan-24 11:50 210 18 5.4 9.0
2017-Jan-24 11:20 190 15 5.4 9.0
2017-Jan-24 10:50 210 18 5.4 9.0
2017-Jan-24 10:20 180 14 5.4 8.0
2017-Jan-24 09:50 200 14 5.4 8.0
2017-Jan-24 09:20 180 13 5.4 8.0
2017-Jan-24 08:50 180 11 5.4 7.0
2017-Jan-24 08:20 190 9 5.4 7.0
2017-Jan-24 07:50 190 13 5.4 8.0
2017-Jan-24 07:20 190 15 5.4 8.0
2017-Jan-24 06:50 190 17 5.4 8.0
2017-Jan-24 06:20 180 18 5.4 7.0
2017-Jan-24 05:50 180 17 5.4 7.0
2017-Jan-24 05:20 180 18 5.4 8.0
2017-Jan-24 04:50 180 17 5.4 7.0
2017-Jan-24 04:20 180 17 5.4 7.0
2017-Jan-24 03:50 180 20 5.4 7.0
2017-Jan-24 03:20 180 15 5.4 7.0
2017-Jan-24 02:50 180 18 5.4 7.0
2017-Jan-24 02:20 180 15 5.4 6.0
2017-Jan-24 01:50 180 11 5.4 5.0
2017-Jan-24 01:20 180 13 5.4 6.0
2017-Jan-24 00:50 180 12 5.4 5.0
2017-Jan-24 00:20 180 11 5.4 5.0
2017-Jan-23 23:50 180 9 5.4 5.0
2017-Jan-23 23:20 180 6 5.4 4.0
2017-Jan-23 22:50 170 7 5.4 5.0
2017-Jan-23 22:20 180 9 5.4 5.0
2017-Jan-23 21:50 180 9 5.4 4.0
2017-Jan-23 21:20 180 8 5.4 4.0
2017-Jan-23 20:50 180 9 5.4 4.0
2017-Jan-23 20:20 190 8 5.4 4.0
2017-Jan-23 19:50 190 7 5.4 4.0
2017-Jan-23 19:20 200 9 5.4 5.0
2017-Jan-23 18:50 200 13 5.4 4.0
2017-Jan-23 18:20 190 12 5.4 4.0
2017-Jan-23 17:50 180 13 5.4 5.0
2017-Jan-23 16:20 190 11 5.4 5.0
2017-Jan-23 15:50 190 7 5.4 5.0
2017-Jan-23 15:20 190 8 5.4 6.0
2017-Jan-23 14:50 190 7 5.4 7.0
2017-Jan-23 14:20 180 6 5.4 7.0
2017-Jan-23 13:50 180 6 5.4 7.0
2017-Jan-23 13:20 180 6 5.4 7.0
2017-Jan-23 12:50 190 6 5.4 7.0 Showers in the vicinity.
2017-Jan-23 12:20 200 6 5.4 7.0 Showers in the vicinity.
2017-Jan-23 11:50 200 6 5.4 7.0 Showers in the vicinity.
2017-Jan-23 11:20 210 7 5.4 7.0 Showers in the vicinity.
2017-Jan-23 10:50 210 6 5.4 6.0 Showers in the vicinity.
2017-Jan-23 10:20 220 7 5.4 7.0 Showers in the vicinity.
2017-Jan-23 09:50 200 2 5.4 7.0 Showers in the vicinity.
2017-Jan-23 09:20 220 6 3.8 7.0 Rain showers.
2017-Jan-23 08:50 210 7 5.4 6.0 Showers in the vicinity.
2017-Jan-23 08:20 220 8 5.4 5.0 Showers in the vicinity.
2017-Jan-23 07:50 230 4 5.4 5.0 Showers in the vicinity.
2017-Jan-23 07:20 240 2 5.4 6.0 Showers in the vicinity.
2017-Jan-23 06:50 230 2 5.4 6.0
2017-Jan-23 06:20 250 4 5.4 6.0
2017-Jan-23 05:50 260 4 5.4 5.0
2017-Jan-23 05:20 250 6 5.4 5.0
2017-Jan-23 04:50 260 6 5.4 6.0
2017-Jan-23 04:20 260 6 5.4 7.0
2017-Jan-23 03:50 230 7 5.4 7.0
2017-Jan-23 03:20 220 7 5.4 6.0
2017-Jan-23 02:50 220 7 5.4 6.0
2017-Jan-23 02:20 230 7 5.4 6.0
2017-Jan-23 01:50 230 7 5.4 7.0
2017-Jan-23 01:20 230 8 5.4 7.0
2017-Jan-23 00:50 240 8 5.4 7.0
2017-Jan-23 00:20 240 6 5.4 6.0
2017-Jan-22 23:50 240 9 5.4 5.0
2017-Jan-22 23:20 250 6 5.4 5.0
2017-Jan-22 22:50 230 9 5.4 5.0
2017-Jan-22 22:20 240 5 5.4 4.0
2017-Jan-22 21:50 240 5 5.4 4.0
2017-Jan-22 21:20 250 6 5.4 3.0
2017-Jan-22 20:50 260 6 4.9 3.0
2017-Jan-22 20:20 240 6 5.4 3.0
2017-Jan-22 19:50 250 4 5.4 3.0
2017-Jan-22 19:20 250 2 5.4 3.0
2017-Jan-22 18:50 260 6 5.4 4.0
2017-Jan-22 18:20 240 6 5.4 6.0
2017-Jan-22 17:50 240 6 5.4 6.0
2017-Jan-22 17:20 240 6 5.4 6.0